Other Public Products
Issued by NWS Grand Forks, ND

Home | Current Version | Previous Version | Graphics & Text | Print | Product List | Glossary On
Versions: 1 2 3 4 5 6 7 8 9 10 11 12 13 14 15 16 17 18 19 20 21 22 23 24 25 26 27 28 29 30 31 32 33 34 35 36 37 38 39 40 41 42 43 44 45 46 47 48 49 50
000
FPUS83 KFGF 012110
OPUFGF
PRAIRIE TO PINES WEATHER ROUNDUP
NATIONAL WEATHER SERVICE EASTERN NORTH DAKOTA/GRAND FORKS ND
400 PM CDT SAT AUG 01 2015

 **SATELLITE DATA USED TO AUGMENT SKY COVER AT AUTOMATED STATIONS**
 *****  WEATHER ACROSS EASTERN NORTH DAKOTA  *****

CITY           SKY/WX    TMP DP  RH WIND       PRES   REMARKS
GRAND FORKS    MOSUNNY   86  59  39 SW7       29.79F
GRAND FORKS AF SUNNY     85  59  42 S8        29.80F
GRAND CITY NWS NOT AVBL
BUXTON         NOT AVBL
DEVILS LAKE    SUNNY     86  52  30 SW8       29.80F
FARGO          SUNNY     87  57  35 S10G18    29.80F
WAHPETON ARPT  PTCLDY    86  59  39 SE10      29.82F
$$

 *****  WEATHER ACROSS CENTRAL AND WESTERN NORTH DAKOTA  *****

CITY           SKY/WX    TMP DP  RH WIND       PRES   REMARKS
JAMESTOWN      SUNNY     85  63  47 SE8       29.81F
BISMARCK       SUNNY     89  59  36 VRB7      29.82F
MINOT          SUNNY     89  45  21 S6        29.80F
MINOT AFB      SUNNY     91  50  24 SW7       29.79F
GARRISON         N/A     85  58  39 S3        29.83F
WILLISTON      SUNNY     95  44  17 S8        29.78F HX  91
DICKINSON      SUNNY     92  38  15 VRB3      29.86F
HETTINGER      SUNNY     93  37  14 VRB7G18   29.91F
$$

 *****  OTHER OBSERVATIONS NORTHEAST NORTH DAKOTA  *****

CITY           SKY/WX    TMP DP  RH WIND       PRES   REMARKS
WALHALLA       FAIR      84  57  39 MISG      29.77F
LANGDON        FAIR      86  55  35 W8        29.82F
CAVALIER       FAIR      84  59  42 SW7       29.77F
GRAFTON        FAIR      84  57  39 SW7       29.79F
CANDO          NOT AVBL
FORT TOTTEN    NOT AVBL
ROLLA            N/A     81  59  47 SW9       29.82F
RUGBY          NOT AVBL
 ***** THE ABOVE OBSERVATIONS ARE NON NWS ARE NOT QUALITY
        CONTROLLED AND MAY MIS-REPORT RAIN FOR SNOW...
$$

 *****  OTHER OBSERVATIONS SOUTHEAST NORTH DAKOTA *****

CITY           SKY/WX    TMP DP  RH WIND       PRES   REMARKS
COOPERSTOWN    NOT AVBL
VALLEY CITY    FAIR      84  63  48 S9        29.82F
OAKES            N/A     90  68  48 SW7       29.80F HX  93
GWINNER        FAIR      86  68  54 SE7       29.81F
SHEYENNE NWR     N/A     86  66  50 SE7       29.95S
BUFFALO        NOT AVBL
WYNDMERE         N/A     86  66  51 SE9         N/A
 ***** THE ABOVE OBSERVATIONS ARE NON NWS ARE NOT QUALITY
       CONTROLLED AND MAY MIS-REPORT RAIN FOR SNOW...
$$

  *****  WEATHER ACROSS NORTHERN MINNESOTA  *****

CITY           SKY/WX    TMP DP  RH WIND       PRES   REMARKS
FLAG ISLAND    MOSUNNY   79  48  34 W13G23    29.74F
WARROAD        SUNNY     81  57  44 W10G18    29.79F
ROSEAU         SUNNY     81  59  47 W10       29.79F
HALLOCK        SUNNY     82  52  34 SW7       29.77F
THF RVR FALLS  SUNNY     81  55  41 S7        29.81F
HALSTAD        NOT AVBL
FOSSTON        MOSUNNY   82  55  39 SW3       29.84F
BAUDETTE       SUNNY     80  51  36 SW14G21   29.78F
WASKISH        SUNNY     81  57  44 SW9       29.81F
CROOKSTON      SUNNY     82  57  42 S10       29.81F
$$
  *****  WEATHER ACROSS CENTRAL AND WEST MINNESOTA  *****

CITY           SKY/WX    TMP DP  RH WIND       PRES   REMARKS
BEMIDJI        SUNNY     81  54  39 SW8       29.84F
PARK RAPIDS    MOSUNNY   81  55  40 SW8       29.85F
WADENA         PTSUNNY   82  54  36 S10       29.86S
DETROIT LAKES  MOSUNNY   81  54  39 S9        29.86F
MOORHEAD       SUNNY     84  57  39 S12       29.81F
FERGUS FALLS   MOSUNNY   82  63  51 S13       29.82F
ELBOW LAKE     FAIR      82  65  55 SE16      29.84F
MORRIS MN      SUNNY     84  68  58 SE12G18   29.83F
STAPLES        MOSUNNY   81  54  39 S9        29.86F
WHEATON        SUNNY     81  68  65 SE14      29.82F
$$
  *****  WEATHER ELSEWHERE ACROSS MINNESOTA  *****

CITY           SKY/WX    TMP DP  RH WIND       PRES   REMARKS
DULUTH         SUNNY     81  51  35 W18G24    29.85F
INTRNTL FALLS  SUNNY     80  51  36 W10       29.77F
ELY            MOSUNNY   77  45  31 SW15G23   29.80F
CLOQUET        SUNNY     81  46  30 W15       29.86S
BRAINERD       PTSUNNY   82  52  35 SW8       29.86F
HIBBING        SUNNY     80  49  33 W9G17     29.84F
ALEXANDRIA     MOSUNNY   83  59  44 S10       29.88F
SAINT CLOUD    MOSUNNY   83  58  42 S8        29.87F
MINNEAPOLIS    MOSUNNY   85  56  37 SW8       29.89F
$$

  *****  WEATHER ACROSS SOUTH DAKOTA  *****

CITY           SKY/WX    TMP DP  RH WIND       PRES   REMARKS
SIOUX FALLS    MOSUNNY   84  62  47 SW10      29.91F
BROOKINGS      MOSUNNY   84  63  48 SW15G22   29.91F
WATERTOWN      SUNNY     86  66  51 SW16      29.86F
HURON          SUNNY     87  63  44 SW15      29.84F
SISSETON         N/A     89  65  44 W14G20    29.79F HX  91
ABERDEEN       SUNNY     90  64  42 SW18G25   29.79F HX  91
MITCHELL       SUNNY     87  60  40 SW14G25   29.88F
PIERRE         SUNNY     91  61  36 SW25G32   29.85F HX  91
MOBRIDGE       SUNNY     95  53  24 NW14      29.80S HX  92
RAPID CITY     SUNNY     91  57  31 VRB6      29.97F
$$

  *****  SOME WEATHER IN NEARBY STATES *****

CITY           SKY/WX    TMP DP  RH WIND       PRES   REMARKS
GLASGOW MT     SUNNY     96  34  11 W15G26    29.82F HX  91
GREAT FALLS MT SUNNY     96  27   8 NW9       29.95F HX  90
CHEYENNE WY    MOSUNNY   86  40  19 NE15G24   30.16F
SCOTTSBLUFF NE MOSUNNY   95  58  28 NE9       30.00F HX  94
OMAHA NE       CLOUDY    82  68  62 SW8       29.98F
DES MOINES IA  CLOUDY    87  70  56 SW7       29.95F HX  92
DAVENPORT IA   PTSUNNY   83  64  52 W12G17    29.97F
CHICAGO IL     PTSUNNY   85  58  39 W16G24    29.92F
EAU CLAIRE WI  SUNNY     84  56  38 W9        29.89F
LA CROSSE WI   SUNNY     85  62  46 NW6       29.90F
$$

  *****  SOME NATIONAL WEATHER *****

CITY           SKY/WX    TMP DP  RH WIND       PRES   REMARKS
LA GUARDIA NY  PTSUNNY   89  53  29 W10G22    29.76S
RALEIGH NC     MOSUNNY   92  58  31 SW8       29.88F HX  91
ATLANTA GA     MOSUNNY   88  65  46 E7        29.94F HX  90
NEW ORLEANS LA MOSUNNY   91  68  46 N9G16     29.88F HX  95
OKLAHOMA CITY  MOSUNNY   90  66  45 S13G18    30.02F HX  92
ALBUQUERQUE NM MOSUNNY   87  51  28 W10       30.17F
SALT LAKE CITY PTSUNNY   93  32  11 NW9       30.06F
LOS ANGELES CA MOSUNNY   74  62  66 W13       29.94F
BOISE ID       SUNNY    100  36  11 NW7       29.97F HX  94
SEATTLE WA     MOSUNNY   88  50  27 NW7       29.99F
$$

*** WEATHER ACROSS MANITOBA...SASKATCHEWAN AND ONTARIO ***
                ***ONTARIO***

CITY           SKY/WX    TMP DP  RH WIND       PRES   REMARKS
GERALDTON      PTSUNNY   68  52  56 W14G25    29.66S
THUNDER BAY    PTSUNNY   77  52  41 W13G21    29.72F
SIOUX LOOKOUT  LGT RAIN  61  59  94 VRB2      29.73F
TORONTO        MOSUNNY   81  52  36 W23G29    29.79F
BIG TROUT LK   CLOUDY    66  45  45 NW17G28   29.47S
PICKLE LAKE    PTSUNNY   66  50  55 W17G26    29.60F
DRYDEN         CLOUDY    70  52  52 W16G26    29.74S
KENORA         PTSUNNY   72  55  56 NW12G18   29.77F
$$
                *** MANITOBA***

CITY           SKY/WX    TMP DP  RH WIND       PRES   REMARKS
BRANDON        MOSUNNY   84  59  42 W14G22    29.76F
DAUPHIN        SUNNY     77  63  61 SE6       29.73F
ISLAND LAKE    MOSUNNY   70  45  40 NW12G25   29.58F
PILOT MOUND      N/A     81  57  44 SW9         N/A
THE PAS        PTSUNNY   72  48  43 NW15      29.74S
THOMPSON       PTSUNNY   66  48  52 N14G21    29.64S
WINNIPEG       MOSUNNY   81  57  44 W13       29.74F
LYNN LAKE      PTSUNNY   66  41  39 NW13G26   29.73S
CHURCHILL      LGT RAIN  46  46 100 N22G28    29.50R FOG
GILLAM         LGT RAIN  54  52  94 NW23G30   29.54S
$$
                ***SASKATCHEWAN***

CITY           SKY/WX    TMP DP  RH WIND       PRES   REMARKS
ESTEVAN        NOT AVBL
KINDERSLEY     MOSUNNY   77  50  38 NE15G21   29.93R
LLOYDMINSTER   PTSUNNY   66  55  68 W12       29.93F
PRINCE ALBERT  PTSUNNY   72  57  60 NW9       29.84S
REGINA         MOSUNNY   84  59  42 N16       29.81R


USA.gov is the U.S. government's official web portal to all federal, state and local government web resources and services.